Time,TemperatureF,DewpointF,PressureIn,WindDirection,WindDirectionDegrees,WindSpeedMPH,WindSpeedGustMPH,Humidity,HourlyPrecipIn,Conditions,Clouds,dailyrainin,SoftwareType,DateUTC
2013-02-15 00:10:00,33.8,31.0,30.60,ENE,69,0.0,3.0,89,0.00,,,0.00,weatherlink.com 1.10,2013-02-15 08:10:00,
2013-02-15 00:25:00,34.0,31.0,30.60,NE,44,0.0,3.0,89,0.00,,,0.00,weatherlink.com 1.10,2013-02-15 08:25:00,
2013-02-15 00:41:00,34.2,31.0,30.60,NE,52,0.0,2.0,88,0.00,,,0.00,weatherlink.com 1.10,2013-02-15 08:41:00,
2013-02-15 00:55:00,33.2,31.0,30.60,NE,52,0.0,0.0,90,0.00,,,0.00,weatherlink.com 1.10,2013-02-15 08:55:00,
2013-02-15 01:10:00,32.0,30.0,30.60,ESE,120,0.0,0.0,91,0.00,,,0.00,weatherlink.com 1.10,2013-02-15 09:10:00,
2013-02-15 01:25:00,31.5,30.0,30.60,ESE,120,0.0,1.0,94,0.00,,,0.00,weatherlink.com 1.10,2013-02-15 09:25:00,
2013-02-15 01:40:00,31.9,30.0,30.60,SE,141,0.0,1.0,93,0.00,,,0.00,weatherlink.com 1.10,2013-02-15 09:40:00,
2013-02-15 01:55:00,32.4,30.0,30.60,NE,47,1.0,1.0,92,0.00,,,0.00,weatherlink.com 1.10,2013-02-15 09:55:00,
2013-02-15 02:10:00,33.9,31.0,30.60,NE,41,2.0,2.0,88,0.00,,,0.00,weatherlink.com 1.10,2013-02-15 10:10:00,
2013-02-15 02:25:00,33.7,31.0,30.59,ESE,118,1.0,1.0,89,0.00,,,0.00,weatherlink.com 1.10,2013-02-15 10:25:00,
2013-02-15 02:40:00,33.1,31.0,30.58,ENE,65,0.0,5.0,90,0.00,,,0.00,weatherlink.com 1.10,2013-02-15 10:40:00,
2013-02-15 02:55:00,33.2,30.0,30.58,NE,41,3.0,3.0,89,0.00,,,0.00,weatherlink.com 1.10,2013-02-15 10:55:00,
2013-02-15 03:10:00,33.5,30.0,30.58,NE,43,0.0,2.0,88,0.00,,,0.00,weatherlink.com 1.10,2013-02-15 11:10:00,
2013-02-15 03:25:00,33.4,30.0,30.58,NE,45,2.0,3.0,88,0.00,,,0.00,weatherlink.com 1.10,2013-02-15 11:25:00,
2013-02-15 03:40:00,32.9,30.0,30.58,NE,40,2.0,2.0,89,0.00,,,0.00,weatherlink.com 1.10,2013-02-15 11:40:00,
2013-02-15 03:55:00,32.3,30.0,30.58,East,80,0.0,2.0,89,0.00,,,0.00,weatherlink.com 1.10,2013-02-15 11:55:00,
2013-02-15 04:10:00,32.0,29.0,30.58,NE,51,1.0,3.0,90,0.00,,,0.00,weatherlink.com 1.10,2013-02-15 12:10:00,
2013-02-15 04:25:00,31.7,29.0,30.58,ESE,103,1.0,4.0,90,0.00,,,0.00,weatherlink.com 1.10,2013-02-15 12:25:00,
2013-02-15 04:40:00,31.0,29.0,30.58,ENE,60,0.0,3.0,92,0.00,,,0.00,weatherlink.com 1.10,2013-02-15 12:40:00,
2013-02-15 04:55:00,30.8,29.0,30.58,NE,36,0.0,0.0,92,0.00,,,0.00,weatherlink.com 1.10,2013-02-15 12:55:00,
2013-02-15 05:11:00,30.9,29.0,30.58,East,91,0.0,1.0,92,0.00,,,0.00,weatherlink.com 1.10,2013-02-15 13:11:00,
2013-02-15 05:25:00,31.3,29.0,30.58,NE,44,0.0,2.0,92,0.00,,,0.00,weatherlink.com 1.10,2013-02-15 13:25:00,
2013-02-15 05:40:00,31.3,29.0,30.58,ESE,108,3.0,4.0,92,0.00,,,0.00,weatherlink.com 1.10,2013-02-15 13:40:00,
2013-02-15 05:55:00,31.6,30.0,30.58,NE,54,0.0,5.0,92,0.00,,,0.00,weatherlink.com 1.10,2013-02-15 13:55:00,
2013-02-15 06:10:00,32.0,30.0,30.59,ENE,68,3.0,4.0,92,0.00,,,0.00,weatherlink.com 1.10,2013-02-15 14:10:00,
2013-02-15 06:26:00,32.3,30.0,30.58,East,82,1.0,5.0,92,0.00,,,0.00,weatherlink.com 1.10,2013-02-15 14:26:00,
2013-02-15 06:40:00,32.0,30.0,30.59,ENE,75,4.0,5.0,92,0.00,,,0.00,weatherlink.com 1.10,2013-02-15 14:40:00,
2013-02-15 06:56:00,32.0,30.0,30.59,ENE,73,4.0,5.0,91,0.00,,,0.00,weatherlink.com 1.10,2013-02-15 14:56:00,
2013-02-15 07:10:00,31.7,29.0,30.59,ENE,73,0.0,4.0,91,0.00,,,0.00,weatherlink.com 1.10,2013-02-15 15:10:00,
2013-02-15 07:25:00,31.4,29.0,30.59,NE,44,1.0,4.0,90,0.00,,,0.00,weatherlink.com 1.10,2013-02-15 15:25:00,
2013-02-15 07:40:00,31.6,29.0,30.59,NE,44,2.0,3.0,91,0.00,,,0.00,weatherlink.com 1.10,2013-02-15 15:40:00,
2013-02-15 07:55:00,32.1,30.0,30.59,ENE,57,2.0,4.0,91,0.00,,,0.00,weatherlink.com 1.10,2013-02-15 15:55:00,
2013-02-15 08:11:00,33.0,30.0,30.59,ENE,71,1.0,4.0,90,0.00,,,0.00,weatherlink.com 1.10,2013-02-15 16:11:00,
2013-02-15 08:26:00,33.8,31.0,30.59,East,82,3.0,5.0,88,0.00,,,0.00,weatherlink.com 1.10,2013-02-15 16:26:00,
2013-02-15 08:41:00,34.7,31.0,30.59,ENE,60,4.0,4.0,87,0.00,,,0.00,weatherlink.com 1.10,2013-02-15 16:41:00,
2013-02-15 08:56:00,34.8,31.0,30.59,NE,43,5.0,7.0,86,0.00,,,0.00,weatherlink.com 1.10,2013-02-15 16:56:00,
2013-02-15 09:11:00,35.5,32.0,30.59,NE,55,3.0,6.0,86,0.00,,,0.00,weatherlink.com 1.10,2013-02-15 17:11:00,
2013-02-15 09:26:00,35.9,32.0,30.58,ENE,73,3.0,6.0,85,0.00,,,0.00,weatherlink.com 1.10,2013-02-15 17:26:00,
2013-02-15 09:41:00,37.2,33.0,30.58,East,89,0.0,5.0,84,0.00,,,0.00,weatherlink.com 1.10,2013-02-15 17:41:00,
2013-02-15 09:56:00,38.1,33.0,30.57,NE,46,3.0,3.0,82,0.00,,,0.00,weatherlink.com 1.10,2013-02-15 17:56:00,
2013-02-15 10:11:00,38.7,33.0,30.57,SE,131,1.0,4.0,81,0.00,,,0.00,weatherlink.com 1.10,2013-02-15 18:11:00,
2013-02-15 10:26:00,40.1,34.0,30.57,ESE,111,1.0,3.0,78,0.00,,,0.00,weatherlink.com 1.10,2013-02-15 18:26:00,
2013-02-15 10:41:00,39.7,34.0,30.57,SE,126,2.0,4.0,80,0.00,,,0.00,weatherlink.com 1.10,2013-02-15 18:41:00,
2013-02-15 10:56:00,39.9,34.0,30.57,SE,130,4.0,4.0,78,0.00,,,0.00,weatherlink.com 1.10,2013-02-15 18:56:00,
2013-02-15 11:11:00,41.1,34.0,30.56,SE,131,3.0,5.0,76,0.00,,,0.00,weatherlink.com 1.10,2013-02-15 19:11:00,
2013-02-15 11:26:00,41.1,34.0,30.55,ESE,118,1.0,6.0,75,0.00,,,0.00,weatherlink.com 1.10,2013-02-15 19:26:00,
2013-02-15 11:41:00,42.2,34.0,30.55,ESE,115,2.0,4.0,73,0.00,,,0.00,weatherlink.com 1.10,2013-02-15 19:41:00,
2013-02-15 11:56:00,42.3,35.0,30.54,ESE,105,2.0,4.0,74,0.00,,,0.00,weatherlink.com 1.10,2013-02-15 19:56:00,
2013-02-15 12:11:00,42.9,35.0,30.53,ESE,120,2.0,3.0,73,0.00,,,0.00,weatherlink.com 1.10,2013-02-15 20:11:00,
2013-02-15 12:26:00,43.9,35.0,30.53,ESE,113,3.0,3.0,71,0.00,,,0.00,weatherlink.com 1.10,2013-02-15 20:26:00,
2013-02-15 12:57:00,44.3,35.0,30.52,East,91,0.0,3.0,70,0.00,,,0.00,weatherlink.com 1.10,2013-02-15 20:57:00,
2013-02-15 13:11:00,44.8,36.0,30.51,East,99,0.0,4.0,71,0.00,,,0.00,weatherlink.com 1.10,2013-02-15 21:11:00,
2013-02-15 13:27:00,45.3,35.0,30.50,NE,47,3.0,4.0,68,0.00,,,0.00,weatherlink.com 1.10,2013-02-15 21:27:00,
2013-02-15 13:42:00,44.3,35.0,30.50,NE,39,3.0,3.0,69,0.00,,,0.00,weatherlink.com 1.10,2013-02-15 21:42:00,
2013-02-15 13:57:00,44.5,35.0,30.49,NE,44,2.0,3.0,69,0.00,,,0.00,weatherlink.com 1.10,2013-02-15 21:57:00,
2013-02-15 14:12:00,44.7,34.0,30.48,NE,49,3.0,4.0,67,0.00,,,0.00,weatherlink.com 1.10,2013-02-15 22:12:00,
2013-02-15 14:27:00,45.1,35.0,30.47,NE,41,2.0,3.0,68,0.00,,,0.00,weatherlink.com 1.10,2013-02-15 22:27:00,
2013-02-15 14:42:00,45.5,35.0,30.47,NE,41,2.0,4.0,66,0.00,,,0.00,weatherlink.com 1.10,2013-02-15 22:42:00,
2013-02-15 14:57:00,45.9,34.0,30.46,NE,42,4.0,4.0,64,0.00,,,0.00,weatherlink.com 1.10,2013-02-15 22:57:00,
2013-02-15 15:12:00,46.2,35.0,30.46,NE,50,4.0,5.0,64,0.00,,,0.00,weatherlink.com 1.10,2013-02-15 23:12:00,
2013-02-15 15:27:00,46.4,34.0,30.46,ENE,72,2.0,4.0,63,0.00,,,0.00,weatherlink.com 1.10,2013-02-15 23:27:00,
2013-02-15 15:42:00,46.3,35.0,30.45,ENE,62,1.0,4.0,64,0.00,,,0.00,weatherlink.com 1.10,2013-02-15 23:42:00,
2013-02-15 15:57:00,45.2,34.0,30.44,NE,53,2.0,6.0,66,0.00,,,0.00,weatherlink.com 1.10,2013-02-15 23:57:00,
2013-02-15 16:12:00,44.5,34.0,30.44,NE,45,4.0,6.0,67,0.00,,,0.00,weatherlink.com 1.10,2013-02-16 00:12:00,
2013-02-15 16:27:00,44.7,34.0,30.43,NE,51,4.0,6.0,67,0.00,,,0.00,weatherlink.com 1.10,2013-02-16 00:27:00,
2013-02-15 16:42:00,44.3,34.0,30.43,NE,50,1.0,5.0,67,0.00,,,0.00,weatherlink.com 1.10,2013-02-16 00:42:00,
2013-02-15 16:57:00,43.2,34.0,30.42,ENE,72,0.0,3.0,69,0.00,,,0.00,weatherlink.com 1.10,2013-02-16 00:57:00,
2013-02-15 17:12:00,43.2,33.0,30.41,NE,49,2.0,4.0,68,0.00,,,0.00,weatherlink.com 1.10,2013-02-16 01:12:00,
2013-02-15 17:27:00,41.3,33.0,30.40,East,79,1.0,2.0,71,0.00,,,0.00,weatherlink.com 1.10,2013-02-16 01:27:00,
2013-02-15 17:42:00,40.1,32.0,30.40,ENE,58,0.0,3.0,73,0.00,,,0.00,weatherlink.com 1.10,2013-02-16 01:42:00,
2013-02-15 17:57:00,39.6,32.0,30.40,East,79,2.0,2.0,74,0.00,,,0.00,weatherlink.com 1.10,2013-02-16 01:57:00,
2013-02-15 18:12:00,37.0,31.0,30.39,NNE,16,0.0,1.0,79,0.00,,,0.00,weatherlink.com 1.10,2013-02-16 02:12:00,
2013-02-15 18:27:00,37.0,31.0,30.39,ENE,72,0.0,1.0,80,0.00,,,0.00,weatherlink.com 1.10,2013-02-16 02:27:00,
2013-02-15 18:42:00,33.2,29.0,30.39,ESE,108,1.0,1.0,85,0.00,,,0.00,weatherlink.com 1.10,2013-02-16 02:42:00,
2013-02-15 18:57:00,36.6,31.0,30.39,NE,44,2.0,3.0,80,0.00,,,0.00,weatherlink.com 1.10,2013-02-16 02:57:00,
2013-02-15 19:12:00,37.1,31.0,30.38,NE,52,1.0,4.0,79,0.00,,,0.00,weatherlink.com 1.10,2013-02-16 03:12:00,
2013-02-15 19:27:00,36.6,31.0,30.38,ENE,64,1.0,6.0,80,0.00,,,0.00,weatherlink.com 1.10,2013-02-16 03:27:00,
2013-02-15 19:42:00,36.3,31.0,30.38,NE,44,2.0,4.0,80,0.00,,,0.00,weatherlink.com 1.10,2013-02-16 03:42:00,
2013-02-15 19:57:00,36.4,31.0,30.37,NE,55,3.0,5.0,80,0.00,,,0.00,weatherlink.com 1.10,2013-02-16 03:57:00,
2013-02-15 20:12:00,36.5,31.0,30.37,NE,42,2.0,3.0,80,0.00,,,0.00,weatherlink.com 1.10,2013-02-16 04:12:00,
2013-02-15 20:27:00,36.4,31.0,30.37,ENE,74,1.0,5.0,80,0.00,,,0.00,weatherlink.com 1.10,2013-02-16 04:27:00,
2013-02-15 20:42:00,34.5,30.0,30.36,ENE,78,4.0,5.0,83,0.00,,,0.00,weatherlink.com 1.10,2013-02-16 04:42:00,
2013-02-15 20:57:00,35.1,30.0,30.36,ENE,62,1.0,5.0,83,0.00,,,0.00,weatherlink.com 1.10,2013-02-16 04:57:00,
2013-02-15 21:13:00,34.9,30.0,30.36,ENE,70,4.0,5.0,82,0.00,,,0.00,weatherlink.com 1.10,2013-02-16 05:13:00,
2013-02-15 21:28:00,35.3,30.0,30.36,NE,46,1.0,4.0,82,0.00,,,0.00,weatherlink.com 1.10,2013-02-16 05:28:00,
2013-02-15 21:43:00,34.6,30.0,30.35,East,91,2.0,4.0,83,0.00,,,0.00,weatherlink.com 1.10,2013-02-16 05:43:00,
2013-02-15 21:58:00,35.0,30.0,30.35,East,89,1.0,6.0,83,0.00,,,0.00,weatherlink.com 1.10,2013-02-16 05:58:00,
2013-02-15 22:13:00,35.2,31.0,30.34,NE,50,5.0,6.0,83,0.00,,,0.00,weatherlink.com 1.10,2013-02-16 06:13:00,
2013-02-15 22:28:00,35.2,31.0,30.34,NE,51,3.0,6.0,83,0.00,,,0.00,weatherlink.com 1.10,2013-02-16 06:28:00,
2013-02-15 22:43:00,34.5,30.0,30.33,ENE,68,3.0,6.0,83,0.00,,,0.00,weatherlink.com 1.10,2013-02-16 06:43:00,
2013-02-15 22:58:00,34.1,30.0,30.33,NE,41,1.0,4.0,85,0.00,,,0.00,weatherlink.com 1.10,2013-02-16 06:58:00,
2013-02-15 23:13:00,32.6,29.0,30.34,ENE,78,1.0,5.0,86,0.00,,,0.00,weatherlink.com 1.10,2013-02-16 07:13:00,
2013-02-15 23:28:00,33.4,29.0,30.33,ENE,72,0.0,6.0,85,0.00,,,0.00,weatherlink.com 1.10,2013-02-16 07:28:00,
2013-02-15 23:58:00,32.4,29.0,30.32,ENE,64,5.0,7.0,88,0.00,,,0.00,weatherlink.com 1.10,2013-02-16 07:58:00,